Westminster, MD

11:09 PM EST on November 19, 2019 (GMT -0500)
Carroll County Regional-Poage

Weather History for KDMW - October, 2019

Change the Weather History Date:

Sunday, October 20, 2019

  Actual Average (WUND) Record (WUND)
Temperature  
Mean Temperature 55 °F -  
Max Temperature 57 °F - - (-1)
Min Temperature 53 °F - - (-1)
Degree Days  
Heating Degree Days 10    
Growing Degree Days 5 (Base 50)    
Moisture  
Dew Point 52 °F    
Average Humidity 92    
Maximum Humidity 100    
Minimum Humidity 77    
Precipitation  
Precipitation 0.37 in - - ()
Sea Level Pressure  
Sea Level Pressure 29.96 in    
Wind  
Wind Speed 5 mph (ENE)    
Max Wind Speed 10 mph    
Max Gust Speed -    
Visibility 8 miles    
Events Rain    
Averages and records for this station are not official NWS values.
T = Trace of Precipitation, MM = Missing Value Source: NWS Daily Summary

Daily Weather History Graph

Daily Weather History Graph

Search for Another Location

Airport or City:

Astronomy

Oct. 20, 2019 Rise Set
Actual Time 7:23 AM EDT 6:21 PM EDT
Civil Twilight 6:55 AM EDT 6:49 PM EDT
Nautical Twilight 6:24 AM EDT 7:20 PM EDT
Astronomical Twilight 5:53 AM EDT 7:51 PM EDT
Moon 11:29 PM EDT 1:48 PM EDT
Length of Visible Light 11h 53m
Length of Day
10h 58m
Waning Gibbous, 59% of the Moon is Illuminated
Oct 20
Waning Gibbous
Oct 21
Last Quarter
Oct 27
New
Nov 4
First Quarter
Nov 12
Full

Hourly Weather History & Observations

Time (EDT) Temp. Dew Point Humidity Pressure Visibility Wind Dir Wind Speed Gust Speed Precip Events Conditions
12:00 AM 53.6 °F 46.4 °F 77% 30.00 in 10.0 mi SSE 6.9 mph - N/A   Clear
12:20 AM 53.6 °F 46.4 °F 77% 30.00 in 10.0 mi SSE 6.9 mph - N/A   Clear
12:40 AM 53.6 °F 46.4 °F 77% 30.00 in 10.0 mi SSE 5.8 mph - N/A   Clear
1:00 AM 53.6 °F 46.4 °F 77% 29.99 in 10.0 mi SE 8.1 mph - N/A   Clear
1:20 AM 53.6 °F 46.4 °F 77% 29.99 in 10.0 mi SE 5.8 mph - N/A   Clear
1:40 AM 53.6 °F 48.2 °F 82% 29.99 in 10.0 mi SE 5.8 mph - N/A   Clear
2:20 AM 53.6 °F 48.2 °F 82% 29.99 in 10.0 mi SSE 5.8 mph - N/A   Clear
3:00 AM 53.6 °F 48.2 °F 82% 29.96 in 10.0 mi SE 8.1 mph - N/A   Scattered Clouds
3:20 AM 53.6 °F 48.2 °F 82% 29.96 in 10.0 mi SE 8.1 mph - N/A   Scattered Clouds
3:40 AM 53.6 °F 48.2 °F 82% 29.96 in 10.0 mi SE 4.6 mph - N/A   Scattered Clouds
4:00 AM 53.6 °F 48.2 °F 82% 29.96 in 10.0 mi SE 4.6 mph - N/A   Scattered Clouds
4:20 AM 53.6 °F 48.2 °F 82% 29.95 in 10.0 mi SE 4.6 mph - N/A   Clear
4:40 AM 53.6 °F 48.2 °F 82% 29.95 in 10.0 mi SE 5.8 mph - N/A   Mostly Cloudy
5:00 AM 53.6 °F 50.0 °F 88% 29.95 in 10.0 mi Calm Calm - N/A   Overcast
5:20 AM 53.6 °F 50.0 °F 88% 29.95 in 10.0 mi SE 5.8 mph - N/A   Overcast
5:40 AM 53.6 °F 50.0 °F 88% 29.96 in 10.0 mi SE 5.8 mph - N/A   Overcast
6:00 AM 53.6 °F 51.8 °F 94% 29.97 in 10.0 mi Calm Calm - N/A Rain Light Rain
6:20 AM 53.6 °F 51.8 °F 94% 29.97 in 10.0 mi SE 3.5 mph - N/A Rain Light Rain
6:40 AM 53.6 °F 51.8 °F 94% 29.98 in 10.0 mi Calm Calm - N/A Rain Light Rain
7:20 AM 53.6 °F 51.8 °F 94% 29.98 in 7.0 mi Calm Calm - 0.03 in Rain Rain
7:40 AM 53.6 °F 51.8 °F 94% 29.97 in 7.0 mi Calm Calm - 0.06 in Rain Light Rain
8:00 AM 53.6 °F 51.8 °F 94% 29.98 in 4.0 mi Calm Calm - 0.01 in Rain Light Rain
8:20 AM 53.6 °F 51.8 °F 94% 29.98 in 4.0 mi Calm Calm - 0.02 in Rain Light Rain
8:40 AM 53.6 °F 51.8 °F 94% 29.98 in 4.0 mi Calm Calm - 0.03 in Rain Rain
9:00 AM 53.6 °F 51.8 °F 94% 29.97 in 5.0 mi Calm Calm - 0.01 in Rain Light Rain
9:20 AM 53.6 °F 53.6 °F 100% 29.98 in 5.0 mi Calm Calm - 0.02 in Rain Rain
9:40 AM 53.6 °F 53.6 °F 100% 29.99 in 7.0 mi Calm Calm - 0.03 in   Drizzle
10:00 AM 53.6 °F 53.6 °F 100% 30.00 in 4.0 mi Calm Calm - 0.01 in Rain Rain
10:20 AM 53.6 °F 53.6 °F 100% 30.00 in 4.0 mi Calm Calm - 0.03 in Rain Rain
10:40 AM 53.6 °F 53.6 °F 100% 29.99 in 4.0 mi Calm Calm - 0.06 in Rain Rain
11:00 AM 55.4 °F 53.6 °F 94% 29.99 in 7.0 mi East 4.6 mph - 0.01 in Rain Rain
11:20 AM 53.6 °F 53.6 °F 100% 29.98 in 10.0 mi East 3.5 mph - 0.03 in Rain Rain
11:40 AM 53.6 °F 53.6 °F 100% 29.98 in 10.0 mi East 5.8 mph - 0.05 in Rain Rain
12:00 PM 55.4 °F 53.6 °F 94% 29.98 in 7.0 mi East 4.6 mph - 0.01 in Rain Rain
12:20 PM 55.4 °F 53.6 °F 94% 29.97 in 7.0 mi East 6.9 mph - 0.04 in Rain Rain
12:40 PM 53.6 °F 53.6 °F 100% 29.95 in 10.0 mi East 9.2 mph - 0.06 in Rain Light Rain
1:00 PM 53.6 °F 53.6 °F 100% 29.95 in 7.0 mi ENE 5.8 mph - 0.02 in Rain Rain
1:20 PM 53.6 °F 53.6 °F 100% 29.93 in 10.0 mi ENE 9.2 mph - 0.04 in Rain Rain
1:40 PM 55.4 °F 53.6 °F 94% 29.93 in 10.0 mi East 6.9 mph - 0.06 in Rain Light Rain
2:00 PM 55.4 °F 53.6 °F 94% 29.92 in 10.0 mi ENE 10.4 mph - N/A   Overcast
2:20 PM 57.2 °F 53.6 °F 88% 29.91 in 10.0 mi ENE 10.4 mph - N/A   Overcast
2:40 PM 57.2 °F 53.6 °F 88% 29.90 in 10.0 mi ENE 10.4 mph - N/A   Overcast
3:00 PM 57.2 °F 53.6 °F 88% 29.91 in 10.0 mi NE 9.2 mph - N/A   Overcast
3:20 PM 57.2 °F 53.6 °F 88% 29.91 in 10.0 mi NE 8.1 mph - N/A   Overcast
3:40 PM 57.2 °F 53.6 °F 88% 29.91 in 10.0 mi NE 10.4 mph - N/A   Overcast
4:20 PM 55.4 °F 53.6 °F 94% 29.91 in 10.0 mi NE 5.8 mph - N/A   Overcast
4:40 PM 55.4 °F 53.6 °F 94% 29.92 in 10.0 mi NE 6.9 mph - N/A Rain Rain
5:00 PM 55.4 °F 53.6 °F 94% 29.92 in 7.0 mi NNE 4.6 mph - N/A   Drizzle
5:20 PM 55.4 °F 53.6 °F 94% 29.93 in 7.0 mi NNE 6.9 mph - N/A   Drizzle
5:40 PM 55.4 °F 53.6 °F 94% 29.93 in 7.0 mi NE 6.9 mph - N/A   Drizzle
6:00 PM 55.4 °F 53.6 °F 94% 29.93 in 5.0 mi NNE 5.8 mph - N/A   Drizzle
6:20 PM 55.4 °F 53.6 °F 94% 29.93 in 5.0 mi NNE 5.8 mph - N/A Rain Heavy Rain
6:40 PM 53.6 °F 53.6 °F 100% 29.93 in 7.0 mi North 5.8 mph - 0.01 in Rain Rain
7:20 PM 53.6 °F 53.6 °F 100% 29.94 in 10.0 mi NNE 4.6 mph - N/A   Overcast
7:40 PM 53.6 °F 51.8 °F 94% 29.95 in 10.0 mi NNE 4.6 mph - N/A   Overcast
8:00 PM 53.6 °F 51.8 °F 94% 29.95 in 10.0 mi NNE 4.6 mph - N/A   Overcast
8:40 PM 53.6 °F 51.8 °F 94% 29.95 in 7.0 mi NNE 3.5 mph - N/A   Overcast
9:00 PM 53.6 °F 53.6 °F 100% 29.96 in 7.0 mi North 4.6 mph - 0.01 in   Overcast
9:20 PM 53.6 °F 51.8 °F 94% 29.96 in 7.0 mi NE 4.6 mph - 0.01 in Rain Light Rain
9:40 PM 53.6 °F 53.6 °F 100% 29.97 in 5.0 mi North 6.9 mph - 0.01 in Rain Light Rain
10:00 PM 53.6 °F 51.8 °F 94% 29.97 in 5.0 mi NNE 5.8 mph - N/A   Light Drizzle
10:20 PM 53.6 °F 51.8 °F 94% 29.98 in 4.0 mi North 6.9 mph - N/A   Drizzle
10:40 PM 53.6 °F 51.8 °F 94% 29.97 in 4.0 mi NNE 4.6 mph - N/A   Overcast
11:00 PM 53.6 °F 51.8 °F 94% 29.98 in 3.0 mi North 5.8 mph - N/A   Overcast
11:20 PM 53.6 °F 51.8 °F 94% 29.98 in 3.0 mi Calm Calm - N/A   Overcast
11:40 PM 53.6 °F 51.8 °F 94% 29.97 in 4.0 mi NNE 3.5 mph - N/A   Overcast